| time (UTC) | temp C | wind direction | speed KPH | gust KPH | rain 1hr cm | rain 24hr cm | rain mn cm | humidity % | barometer mb |
| 20260505125004 | 32 | 0.0 | 0.0 | 0.00 | 0.00 | 0.00 | 15 | 1015.6 | |
| 20260505124959 | 32 | 0.0 | 0.0 | 0.00 | 0.00 | 0.00 | 15 | 1015.6 | |
| 20260505123504 | 32 | 0.0 | 0.0 | 0.00 | 0.00 | 0.00 | 16 | 1015.7 | |
| 20260505123500 | 32 | 0.0 | 0.0 | 0.00 | 0.00 | 0.00 | 16 | 1015.7 | |
| 20260505122000 | 29 | 0.0 | 0.0 | 0.00 | 0.00 | 0.00 | 19 | 1015.9 | |
| 20260505120504 | 31 | 0.0 | 0.0 | 0.00 | 0.00 | 0.00 | 18 | 1016.0 | |
| 20260505120500 | 31 | 0.0 | 0.0 | 0.00 | 0.00 | 0.00 | 18 | 1016.0 | |
| 20260505115004 | 30 | 0.0 | 0.0 | 0.00 | 0.00 | 0.00 | 17 | 1016.1 | |
| 20260505115000 | 30 | 0.0 | 0.0 | 0.00 | 0.00 | 0.00 | 17 | 1016.1 | |
| 20260505113504 | 31 | 0.0 | 0.0 | 0.00 | 0.00 | 0.00 | 17 | 1016.2 | |
| 20260505113500 | 31 | 0.0 | 0.0 | 0.00 | 0.00 | 0.00 | 17 | 1016.2 | |
| 20260505112004 | 30 | 0.0 | 0.0 | 0.00 | 0.00 | 0.00 | 19 | 1016.4 | |
| 20260505112000 | 30 | 0.0 | 0.0 | 0.00 | 0.00 | 0.00 | 19 | 1016.4 | |
| 20260505110505 | 31 | 0.0 | 0.0 | 0.00 | 0.00 | 0.00 | 17 | 1016.5 | |
| 20260505110500 | 31 | 0.0 | 0.0 | 0.00 | 0.00 | 0.00 | 17 | 1016.5 | |
| 20260505102005 | 28 | 0.0 | 0.0 | 0.00 | 0.00 | 0.00 | 21 | 1016.6 | |
| 20260505102000 | 28 | 0.0 | 0.0 | 0.00 | 0.00 | 0.00 | 21 | 1016.6 | |
| 20260505100505 | 28 | 0.0 | 0.0 | 0.00 | 0.00 | 0.00 | 21 | 1016.7 | |
| 20260505100500 | 28 | 0.0 | 0.0 | 0.00 | 0.00 | 0.00 | 21 | 1016.7 | |
| 20260505095005 | 28 | 0.0 | 0.0 | 0.00 | 0.00 | 0.00 | 22 | 1016.9 | |
| 20260505095000 | 28 | 0.0 | 0.0 | 0.00 | 0.00 | 0.00 | 22 | 1016.9 | |
| 20260505093505 | 28 | 0.0 | 0.0 | 0.00 | 0.00 | 0.00 | 22 | 1017.0 | |
| 20260505093500 | 28 | 0.0 | 0.0 | 0.00 | 0.00 | 0.00 | 22 | 1017.0 | |
| 20260505092008 | 27 | 0.0 | 0.0 | 0.00 | 0.00 | 0.00 | 22 | 1017.1 | |
| 20260505092000 | 27 | 0.0 | 0.0 | 0.00 | 0.00 | 0.00 | 22 | 1017.1 | |
| 20260505090505 | 27 | 0.0 | 0.0 | 0.00 | 0.00 | 0.00 | 23 | 1017.1 | |
| 20260505090500 | 27 | 0.0 | 0.0 | 0.00 | 0.00 | 0.00 | 23 | 1017.1 | |
| 20260505085005 | 27 | 0.0 | 0.0 | 0.00 | 0.00 | 0.00 | 24 | 1017.2 | |
| 20260505085000 | 27 | 0.0 | 0.0 | 0.00 | 0.00 | 0.00 | 24 | 1017.2 | |
| 20260505083505 | 27 | 0.0 | 0.0 | 0.00 | 0.00 | 0.00 | 24 | 1017.2 | |
| 20260505083500 | 27 | 0.0 | 0.0 | 0.00 | 0.00 | 0.00 | 24 | 1017.2 | |
| 20260505082005 | 27 | 0.0 | 0.0 | 0.00 | 0.00 | 0.00 | 25 | 1017.3 | |
| 20260505082000 | 27 | 0.0 | 0.0 | 0.00 | 0.00 | 0.00 | 25 | 1017.3 | |
| 20260505080505 | 26 | 0.0 | 0.0 | 0.00 | 0.00 | 0.00 | 25 | 1017.3 | |
| 20260505080500 | 26 | 0.0 | 0.0 | 0.00 | 0.00 | 0.00 | 25 | 1017.3 | |
| 20260505075005 | 26 | 0.0 | 0.0 | 0.00 | 0.00 | 0.00 | 25 | 1017.4 | |
| 20260505075000 | 26 | 0.0 | 0.0 | 0.00 | 0.00 | 0.00 | 25 | 1017.4 | |
| 20260505073505 | 25 | 0.0 | 0.0 | 0.00 | 0.00 | 0.00 | 25 | 1017.4 | |
| 20260505073500 | 25 | 0.0 | 0.0 | 0.00 | 0.00 | 0.00 | 25 | 1017.4 | |
| 20260505072005 | 25 | 0.0 | 0.0 | 0.00 | 0.00 | 0.00 | 25 | 1017.5 | |
| 20260505072000 | 25 | 0.0 | 0.0 | 0.00 | 0.00 | 0.00 | 25 | 1017.5 | |
| 20260505070505 | 25 | 0.0 | 0.0 | 0.00 | 0.00 | 0.00 | 25 | 1017.5 | |
| 20260505070500 | 25 | 0.0 | 0.0 | 0.00 | 0.00 | 0.00 | 25 | 1017.5 | |
| 20260505065000 | 22 | 0.0 | 0.0 | 0.00 | 0.00 | 0.00 | 29 | 1017.4 | |
| 20260505063505 | 22 | 0.0 | 0.0 | 0.00 | 0.00 | 0.00 | 28 | 1017.4 | |
| 20260505063500 | 22 | 0.0 | 0.0 | 0.00 | 0.00 | 0.00 | 28 | 1017.4 | |
| 20260505062005 | 23 | 0.0 | 0.0 | 0.00 | 0.00 | 0.00 | 27 | 1017.2 | |
| 20260505062000 | 23 | 0.0 | 0.0 | 0.00 | 0.00 | 0.00 | 27 | 1017.2 | |
| 20260505060500 | 24 | 0.0 | 0.0 | 0.00 | 0.00 | 0.00 | 26 | 1017.3 | |
| 20260505055005 | 26 | 0.0 | 0.0 | 0.00 | 0.00 | 0.00 | 25 | 1017.3 | |
| 20260505055000 | 26 | 0.0 | 0.0 | 0.00 | 0.00 | 0.00 | 25 | 1017.3 | |
| 20260505053505 | 25 | 0.0 | 0.0 | 0.00 | 0.00 | 0.00 | 27 | 1017.3 | |
| 20260505053500 | 25 | 0.0 | 0.0 | 0.00 | 0.00 | 0.00 | 27 | 1017.3 | |
| 20260505052000 | 21 | 0.0 | 0.0 | 0.00 | 0.00 | 0.00 | 31 | 1017.3 | |
| 20260505050500 | 19 | 0.0 | 0.0 | 0.00 | 0.00 | 0.00 | 34 | 1017.2 | |
| 20260505040505 | 16 | 0.0 | 0.0 | 0.00 | 0.00 | 0.00 | 37 | 1017.0 | |
| 20260505040500 | 16 | 0.0 | 0.0 | 0.00 | 0.00 | 0.00 | 37 | 1017.0 | |
| 20260505035005 | 16 | 0.0 | 0.0 | 0.00 | 0.00 | 0.00 | 38 | 1017.1 | |
| 20260505035000 | 16 | 0.0 | 0.0 | 0.00 | 0.00 | 0.00 | 38 | 1017.1 | |
| 20260505033500 | 15 | 0.0 | 0.0 | 0.00 | 0.00 | 0.00 | 39 | 1017.0 | |
| 20260505032005 | 15 | 0.0 | 0.0 | 0.00 | 0.00 | 0.00 | 40 | 1017.0 | |
| 20260505032000 | 15 | 0.0 | 0.0 | 0.00 | 0.00 | 0.00 | 40 | 1017.0 | |
| 20260505030505 | 16 | 0.0 | 0.0 | 0.00 | 0.00 | 0.00 | 38 | 1017.0 | |
| 20260505030500 | 16 | 0.0 | 0.0 | 0.00 | 0.00 | 0.00 | 38 | 1017.0 | |
| 20260505025005 | 16 | 0.0 | 0.0 | 0.00 | 0.00 | 0.00 | 39 | 1017.0 | |
| 20260505025000 | 16 | 0.0 | 0.0 | 0.00 | 0.00 | 0.00 | 39 | 1017.0 | |
| 20260505023501 | 16 | 0.0 | 0.0 | 0.00 | 0.00 | 0.00 | 38 | 1017.0 | |
| 20260505022005 | 16 | 0.0 | 0.0 | 0.00 | 0.00 | 0.00 | 39 | 1017.0 | |
| 20260505022000 | 16 | 0.0 | 0.0 | 0.00 | 0.00 | 0.00 | 39 | 1017.0 | |
| 20260505020500 | 15 | 0.0 | 0.0 | 0.00 | 0.00 | 0.00 | 41 | 1017.0 | |
| 20260505015001 | 16 | 0.0 | 0.0 | 0.00 | 0.00 | 0.00 | 40 | 1017.1 | |
| 20260505013506 | 16 | 0.0 | 0.0 | 0.00 | 0.00 | 0.00 | 41 | 1017.0 | |
| 20260505013501 | 16 | 0.0 | 0.0 | 0.00 | 0.00 | 0.00 | 41 | 1017.0 | |
| 20260505012005 | 16 | 0.0 | 0.0 | 0.00 | 0.00 | 0.00 | 39 | 1017.0 | |
| 20260505012001 | 16 | 0.0 | 0.0 | 0.00 | 0.00 | 0.00 | 39 | 1017.0 | |
| 20260505010501 | 16 | 0.0 | 0.0 | 0.00 | 0.00 | 0.00 | 39 | 1017.0 | |
| 20260505005006 | 16 | 0.0 | 0.0 | 0.00 | 0.00 | 0.00 | 39 | 1017.0 | |
| 20260505005001 | 16 | 0.0 | 0.0 | 0.00 | 0.00 | 0.00 | 39 | 1017.0 | |
| 20260505003501 | 16 | 0.0 | 0.0 | 0.00 | 0.00 | 0.00 | 39 | 1017.0 | |
| 20260505002006 | 16 | 0.0 | 0.0 | 0.00 | 0.00 | 0.00 | 39 | 1017.0 | |
| 20260505002001 | 16 | 0.0 | 0.0 | 0.00 | 0.00 | 0.00 | 39 | 1017.0 | |
| 20260505000506 | 17 | 0.0 | 0.0 | 0.00 | 0.00 | 0.00 | 36 | 1017.0 | |
| 20260505000501 | 17 | 0.0 | 0.0 | 0.00 | 0.00 | 0.00 | 36 | 1017.0 | |
| 20260504235006 | 17 | 0.0 | 0.0 | 0.00 | 0.00 | 0.00 | 36 | 1017.0 | |
| 20260504235001 | 17 | 0.0 | 0.0 | 0.00 | 0.00 | 0.00 | 36 | 1017.0 | |
| 20260504233506 | 17 | 0.0 | 0.0 | 0.00 | 0.00 | 0.00 | 36 | 1017.1 | |
| 20260504233501 | 17 | 0.0 | 0.0 | 0.00 | 0.00 | 0.00 | 36 | 1017.1 | |
| 20260504232006 | 16 | 0.0 | 0.0 | 0.00 | 0.00 | 0.00 | 37 | 1017.2 | |
| 20260504232001 | 16 | 0.0 | 0.0 | 0.00 | 0.00 | 0.00 | 37 | 1017.2 | |
| 20260504230506 | 16 | 0.0 | 0.0 | 0.00 | 0.00 | 0.00 | 37 | 1017.4 | |
| 20260504230502 | 16 | 0.0 | 0.0 | 0.00 | 0.00 | 0.00 | 37 | 1017.4 | |
| 20260504225006 | 17 | 0.0 | 0.0 | 0.00 | 0.00 | 0.00 | 36 | 1017.4 | |
| 20260504225001 | 17 | 0.0 | 0.0 | 0.00 | 0.00 | 0.00 | 36 | 1017.4 | |
| 20260504223506 | 16 | 0.0 | 0.0 | 0.00 | 0.00 | 0.00 | 37 | 1017.4 | |
| 20260504223501 | 16 | 0.0 | 0.0 | 0.00 | 0.00 | 0.00 | 37 | 1017.4 | |
| 20260504222001 | 16 | 0.0 | 0.0 | 0.00 | 0.00 | 0.00 | 38 | 1017.5 | |
| 20260504220501 | 16 | 0.0 | 0.0 | 0.00 | 0.00 | 0.00 | 37 | 1017.6 | |
| 20260504215006 | 16 | 0.0 | 0.0 | 0.00 | 0.00 | 0.00 | 37 | 1017.5 | |
| 20260504215001 | 16 | 0.0 | 0.0 | 0.00 | 0.00 | 0.00 | 37 | 1017.5 | |
| 20260504213506 | 16 | 0.0 | 0.0 | 0.00 | 0.00 | 0.00 | 39 | 1017.5 | |
| 20260504213501 | 16 | 0.0 | 0.0 | 0.00 | 0.00 | 0.00 | 39 | 1017.5 | |
| 20260504212006 | 16 | 0.0 | 0.0 | 0.00 | 0.00 | 0.00 | 37 | 1017.5 | |
| 20260504212001 | 16 | 0.0 | 0.0 | 0.00 | 0.00 | 0.00 | 37 | 1017.5 | |
| 20260504210506 | 16 | 0.0 | 0.0 | 0.00 | 0.00 | 0.00 | 37 | 1017.2 | |
| 20260504210501 | 16 | 0.0 | 0.0 | 0.00 | 0.00 | 0.00 | 37 | 1017.2 | |
| 20260504205006 | 16 | 0.0 | 0.0 | 0.00 | 0.00 | 0.00 | 36 | 1017.2 | |
| 20260504205001 | 16 | 0.0 | 0.0 | 0.00 | 0.00 | 0.00 | 36 | 1017.2 | |
| 20260504203501 | 18 | 0.0 | 0.0 | 0.00 | 0.00 | 0.00 | 31 | 1017.1 | |
| 20260504202006 | 18 | 0.0 | 0.0 | 0.00 | 0.00 | 0.00 | 30 | 1017.0 | |
| 20260504202001 | 18 | 0.0 | 0.0 | 0.00 | 0.00 | 0.00 | 30 | 1017.0 | |
| 20260504200506 | 18 | 0.0 | 0.0 | 0.00 | 0.00 | 0.00 | 31 | 1017.0 | |
| 20260504200501 | 18 | 0.0 | 0.0 | 0.00 | 0.00 | 0.00 | 31 | 1017.0 | |
| 20260504195001 | 18 | 0.0 | 0.0 | 0.00 | 0.00 | 0.00 | 30 | 1016.9 | |
| 20260504193506 | 18 | 0.0 | 0.0 | 0.00 | 0.00 | 0.00 | 31 | 1016.9 | |
| 20260504193501 | 18 | 0.0 | 0.0 | 0.00 | 0.00 | 0.00 | 31 | 1016.9 | |
| 20260504192006 | 18 | 0.0 | 0.0 | 0.00 | 0.00 | 0.00 | 31 | 1016.9 | |
| 20260504192001 | 18 | 0.0 | 0.0 | 0.00 | 0.00 | 0.00 | 31 | 1016.9 | |
| 20260504190506 | 18 | 0.0 | 0.0 | 0.00 | 0.00 | 0.00 | 32 | 1016.9 | |
| 20260504190501 | 18 | 0.0 | 0.0 | 0.00 | 0.00 | 0.00 | 32 | 1016.9 | |
| 20260504185006 | 17 | 0.0 | 0.0 | 0.00 | 0.00 | 0.00 | 35 | 1016.9 | |
| 20260504185001 | 17 | 0.0 | 0.0 | 0.00 | 0.00 | 0.00 | 35 | 1016.9 | |
| 20260504183501 | 17 | 0.0 | 0.0 | 0.00 | 0.00 | 0.00 | 36 | 1016.8 | |
| 20260504182006 | 17 | 0.0 | 0.0 | 0.00 | 0.00 | 0.00 | 35 | 1016.8 | |
| 20260504182001 | 17 | 0.0 | 0.0 | 0.00 | 0.00 | 0.00 | 35 | 1016.8 | |
| 20260504180506 | 18 | 0.0 | 0.0 | 0.00 | 0.00 | 0.00 | 34 | 1016.9 | |
| 20260504180501 | 18 | 0.0 | 0.0 | 0.00 | 0.00 | 0.00 | 34 | 1016.9 | |
| 20260504175006 | 17 | 0.0 | 0.0 | 0.00 | 0.00 | 0.00 | 35 | 1016.9 | |
| 20260504175001 | 17 | 0.0 | 0.0 | 0.00 | 0.00 | 0.00 | 35 | 1016.9 | |
| 20260504173506 | 18 | 0.0 | 0.0 | 0.00 | 0.00 | 0.00 | 33 | 1016.9 | |
| 20260504173501 | 18 | 0.0 | 0.0 | 0.00 | 0.00 | 0.00 | 33 | 1016.9 | |
| 20260504172006 | 19 | 0.0 | 0.0 | 0.00 | 0.00 | 0.00 | 33 | 1016.8 | |
| 20260504172001 | 19 | 0.0 | 0.0 | 0.00 | 0.00 | 0.00 | 33 | 1016.8 | |
| 20260504170501 | 22 | 0.0 | 0.0 | 0.00 | 0.00 | 0.00 | 28 | 1017.0 | |
| 20260504150502 | 24 | 0.0 | 0.0 | 0.00 | 0.00 | 0.00 | 25 | 1017.6 | |
| 20260504140507 | 26 | 0.0 | 0.0 | 0.00 | 0.00 | 0.00 | 24 | 1017.7 | |
| 20260504140502 | 26 | 0.0 | 0.0 | 0.00 | 0.00 | 0.00 | 24 | 1017.7 |